M I D A S
Marine Information and Data Acquisition System
Tripno 725 of the Zeeleeuw from 2004-05-28 07:30:34 to 2004-05-28 13:58:28
Back to CruiseResearch ActivitiesStationsMapUnderway DataData graphs

EquipmentUnitsComments
TimeDGPSUTC
LatitudeDGPSDM.mWGS84
LongitudeDGPSDM.mWGS84
SpeedMeteo Stationm/sRelative wind speed
DirectionMeteo StationdegRelative wind direction
TemperatureMeteo Stationdeg CelciusAir temperature
PressureMeteo StationPaAtmospheric pressure
HumidityMeteo Station%Relative humidity
Missing or incorrect values are displayed as -999
Metereological data collected by the RV Zeeleeuw from 2004-05-28 07:30:34 to 2004-05-28 13:58:28
Time Latitude Longitude Speed Direction Temperature Pressure Humidity
2004-05-28 07:31 51°9.137 2°34.731 2.4 254 12.8 102590 63
2004-05-28 07:32 51°9.149 2°34.671 2.8 255 12.8 102600 63
2004-05-28 07:33 51°9.159 2°34.612 2.8 254 12.8 102590 63
2004-05-28 07:34 51°9.156 2°34.555 3.4 257 12.8 102600 64
2004-05-28 07:35 51°9.147 2°34.488 4.2 265 12.8 102590 64
2004-05-28 07:36 51°9.136 2°34.419 5.2 267 12.9 102590 65
2004-05-28 07:38 51°9.122 2°34.338 4.1 262 12.9 102600 64
2004-05-28 07:39 51°9.111 2°34.269 3.6 281 12.9 102600 65
2004-05-28 07:40 51°9.099 2°34.195 4.1 280 13 102590 65
2004-05-28 07:41 51°9.084 2°34.119 5 285 13.1 102600 64
2004-05-28 07:42 51°9.069 2°34.035 4.3 274 13.1 102590 63
2004-05-28 07:43 51°9.057 2°33.963 5.1 270 13.1 102600 63
2004-05-28 07:44 51°9.044 2°33.89 4.1 273 13.2 102590 63
2004-05-28 07:45 51°9.031 2°33.81 3.9 275 13.2 102600 63
2004-05-28 07:46 51°9.019 2°33.731 3.9 276 13.3 102600 64
2004-05-28 07:47 51°9.005 2°33.664 3.8 283 13.3 102600 63
2004-05-28 07:48 51°8.986 2°33.604 4.4 275 13.3 102600 62
2004-05-28 07:49 51°8.965 2°33.536 3.4 279 13.3 102600 62
2004-05-28 07:50 51°8.943 2°33.466 3.6 281 13.3 102600 63
2004-05-28 07:51 51°8.925 2°33.401 3.7 280 13.3 102610 62
2004-05-28 07:52 51°8.907 2°33.334 3.4 274 13.3 102610 63
2004-05-28 07:53 51°8.888 2°33.266 3.3 279 13.4 102610 64
2004-05-28 07:54 51°8.867 2°33.192 4.6 295 13.5 102610 64
2004-05-28 07:55 51°8.848 2°33.124 4 292 13.5 102610 62
2004-05-28 07:56 51°8.83 2°33.055 4.2 293 13.6 102610 62
2004-05-28 07:57 51°8.811 2°32.976 4.4 282 13.6 102600 60
2004-05-28 07:58 51°8.82 2°32.894 2.5 241 13.6 102610 60
2004-05-28 07:59 51°8.861 2°32.84 2.6 166 13.6 102610 60
2004-05-28 08:00 51°8.902 2°32.82 2.9 164 13.7 102610 59
2004-05-28 08:01 51°8.939 2°32.812 2.9 161 13.7 102610 59
2004-05-28 08:02 51°8.97 2°32.804 2.7 163 13.6 102610 59
2004-05-28 08:03 51°9.002 2°32.803 3.6 110 13.6 102610 60
2004-05-28 08:04 51°9.043 2°32.854 3.9 65 13.6 102610 60
2004-05-28 08:05 51°9.075 2°32.939 4.4 64 13.5 102600 62
2004-05-28 08:06 51°9.096 2°33.028 5.1 40 13.5 102600 62
2004-05-28 08:07 51°9.101 2°33.117 4.5 22 13.4 102600 62
2004-05-28 08:08 51°9.098 2°33.212 5 28 13.5 102600 62
2004-05-28 08:09 51°9.093 2°33.305 5.2 34 13.5 102600 60
2004-05-28 08:10 51°9.092 2°33.4 5.1 21 13.5 102600 63
2004-05-28 08:11 51°9.096 2°33.497 4.7 32 13.5 102610 61
2004-05-28 08:12 51°9.105 2°33.594 4.9 30 13.5 102600 60
2004-05-28 08:13 51°9.11 2°33.697 4.4 31 13.6 102600 61
2004-05-28 08:14 51°9.115 2°33.798 4.2 23 13.5 102610 59
2004-05-28 08:15 51°9.121 2°33.912 5 24 13.6 102600 61
2004-05-28 08:16 51°9.126 2°34.013 4.7 19 13.7 102600 59
2004-05-28 08:17 51°9.133 2°34.112 5 28 13.8 102610 65
2004-05-28 08:19 51°9.139 2°34.228 4.4 34 13.8 102600 61
2004-05-28 08:20 51°9.144 2°34.324 4.8 31 13.7 102600 59
2004-05-28 08:21 51°9.15 2°34.429 4.1 36 13.6 102610 58
2004-05-28 08:22 51°9.156 2°34.521 4.5 32 13.6 102600 59
2004-05-28 08:23 51°9.163 2°34.612 5.4 30 13.6 102610 56
2004-05-28 08:24 51°9.172 2°34.728 5.9 35 13.6 102600 54
2004-05-28 08:25 51°9.181 2°34.853 4.8 30 13.6 102600 53
2004-05-28 08:26 51°9.186 2°34.974 4.9 34 13.6 102610 53
2004-05-28 08:27 51°9.191 2°35.091 5.6 33 13.7 102610 54
2004-05-28 08:28 51°9.196 2°35.211 4.4 41 13.7 102610 55
2004-05-28 08:29 51°9.2 2°35.304 5.4 42 13.7 102610 56
2004-05-28 08:30 51°9.204 2°35.397 5 42 13.7 102620 55
2004-05-28 08:31 51°9.209 2°35.47 3.5 37 13.7 102610 56
2004-05-28 08:32 51°9.213 2°35.544 4.5 42 13.7 102620 58
2004-05-28 08:33 51°9.218 2°35.618 4.2 43 13.7 102620 56
2004-05-28 08:34 51°9.22 2°35.692 3.8 42 13.7 102620 54
2004-05-28 08:35 51°9.221 2°35.769 3.4 46 13.7 102620 56
2004-05-28 08:36 51°9.228 2°35.838 3.9 58 13.8 102620 54
2004-05-28 08:37 51°9.313 2°35.911 2.6 30 13.8 102620 54
2004-05-28 08:38 51°9.513 2°35.868 5.5 16 13.8 102620 54
2004-05-28 08:39 51°9.751 2°35.811 5 15 13.9 102620 55
2004-05-28 08:40 51°10.031 2°35.758 5.2 28 14 102620 54
2004-05-28 08:41 51°10.269 2°35.782 6.6 24 14 102610 55
2004-05-28 08:42 51°10.507 2°35.83 6.8 25 14 102620 56
2004-05-28 08:43 51°10.71 2°36.018 9.3 17 14 102620 58
2004-05-28 08:44 51°10.875 2°36.3 9 20 14 102610 58
2004-05-28 08:45 51°11.048 2°36.568 8.7 19 14 102600 57
2004-05-28 08:46 51°11.22 2°36.837 8.9 19 14 102610 55
2004-05-28 08:47 51°11.388 2°37.098 9.2 23 14.1 102600 55
2004-05-28 08:48 51°11.563 2°37.368 9.1 23 14.1 102610 54
2004-05-28 08:49 51°11.727 2°37.644 8.4 24 14.1 102610 55
2004-05-28 08:50 51°11.886 2°37.921 8.8 20 14.1 102610 54
2004-05-28 08:51 51°12.051 2°38.207 8.2 20 14.1 102620 54
2004-05-28 08:52 51°12.212 2°38.489 9.1 23 14.1 102620 55
2004-05-28 08:53 51°12.402 2°38.819 8.6 20 14.2 102620 58
2004-05-28 08:54 51°12.56 2°39.091 8.6 18 14.1 102620 57
2004-05-28 08:55 51°12.728 2°39.381 8.1 18 14.1 102630 55
2004-05-28 08:56 51°12.884 2°39.665 8.1 16 14.1 102610 56
2004-05-28 08:57 51°13.038 2°39.958 7.7 15 14.1 102620 57
2004-05-28 08:58 51°13.186 2°40.27 7.7 21 14 102620 56
2004-05-28 08:59 51°13.346 2°40.618 8.1 17 14.1 102630 55
2004-05-28 09:00 51°13.49 2°40.935 8.2 12 14.1 102630 55
2004-05-28 09:01 51°13.632 2°41.246 7.7 15 14.1 102630 55
2004-05-28 09:02 51°13.772 2°41.549 6 14 14.1 102620 54
2004-05-28 09:03 51°13.837 2°41.745 2.9 18 14.2 102630 55
2004-05-28 09:04 51°13.854 2°41.844 1.2 47 14.2 102640 55
2004-05-28 09:06 51°13.859 2°41.851 0.9 67 14.4 102640 55
2004-05-28 09:07 51°13.862 2°41.864 1.6 30 14.5 102640 54
2004-05-28 09:08 51°13.863 2°41.974 2.2 9 14.6 102640 54
2004-05-28 09:09 51°13.865 2°42.062 3.1 18 14.6 102640 53
2004-05-28 09:10 51°13.872 2°42.142 2.7 12 14.6 102640 53
2004-05-28 09:11 51°13.884 2°42.219 2.4 358 14.7 102640 53
2004-05-28 09:12 51°13.896 2°42.295 2.3 4 14.8 102650 52
2004-05-28 09:13 51°13.912 2°42.369 2.1 13 14.8 102640 52
2004-05-28 09:14 51°13.93 2°42.443 2.4 9 14.9 102640 52
2004-05-28 09:15 51°13.947 2°42.516 2.1 10 14.9 102640 52
2004-05-28 09:16 51°13.965 2°42.591 2.1 12 15 102640 52
2004-05-28 09:17 51°13.981 2°42.665 2.1 10 15 102640 51
2004-05-28 09:18 51°13.996 2°42.739 2 356 15 102640 51
2004-05-28 09:19 51°14.011 2°42.813 1.9 346 15.1 102640 52
2004-05-28 09:20 51°14.026 2°42.887 2.4   15.2 102640 52
2004-05-28 09:21 51°14.042 2°42.96 1.7 2 15.2 102630 49
2004-05-28 09:22 51°14.063 2°43.03 2.1 6 15.2 102630 50
2004-05-28 09:23 51°14.084 2°43.098 1.9 8 15.1 102630 51
2004-05-28 09:24 51°14.105 2°43.166 2 359 15.2 102640 51
2004-05-28 09:25 51°14.128 2°43.243 2.4 10 15.3 102630 50
2004-05-28 09:26 51°14.149 2°43.313 2.3 348 15.4 102640 50
2004-05-28 09:27 51°14.169 2°43.383 2.5 334 15.4 102630 52
2004-05-28 09:28 51°14.19 2°43.458 2.2 335 15.4 102640 51
2004-05-28 09:29 51°14.214 2°43.53 2.4 337 15.4 102630 51
2004-05-28 09:30 51°14.244 2°43.603 2.5 347 15.5 102640 52
2004-05-28 09:31 51°14.276 2°43.678 1.5 345 15.4 102630 51
2004-05-28 09:32 51°14.309 2°43.755 2.6 357 15.3 102630 51
2004-05-28 09:33 51°14.339 2°43.832 2.2 334 15.2 102630 52
2004-05-28 09:34 51°14.367 2°43.91 2.1 335 15.2 102630 51
2004-05-28 09:35 51°14.397 2°43.987 2.1 333 15.3 102630 51
2004-05-28 09:36 51°14.423 2°44.061 2.1 338 15.3 102630 51
2004-05-28 09:37 51°14.449 2°44.128 2.2 323 15.4 102630 51
2004-05-28 09:38 51°14.473 2°44.177 1.5 320 15.4 102630 50
2004-05-28 09:39 51°14.495 2°44.215 2.1 325 15.6 102630 52
2004-05-28 09:40 51°14.571 2°44.232 3.8 7 15.5 102630 51
2004-05-28 09:41 51°14.647 2°44.181 3.4 21 15.3 102630 52
2004-05-28 09:42 51°14.715 2°44.152 3 2 15.2 102630 51
2004-05-28 09:43 51°14.769 2°44.185 2.7 346 15.2 102630 51
2004-05-28 09:44 51°14.79 2°44.251 2.4 328 15.2 102630 53
2004-05-28 09:45 51°14.773 2°44.322 1.8 318 15.3 102630 52
2004-05-28 09:46 51°14.725 2°44.381 1.8 307 15.4 102630 51
2004-05-28 09:47 51°14.672 2°44.402 1.2 289 15.4 102630 52
2004-05-28 09:48 51°14.615 2°44.397 0.5 280 15.4 102630 50
2004-05-28 09:49 51°14.562 2°44.359   268 15.5 102630 50
2004-05-28 09:50 51°14.52 2°44.294 0.9 79 15.6 102630 50
2004-05-28 09:51 51°14.483 2°44.221 1.1 79 15.7 102630 50
2004-05-28 09:52 51°14.45 2°44.144 1.7 71 15.5 102630 52
2004-05-28 09:53 51°14.414 2°44.069 1.5 76 15.2 102630 52
2004-05-28 09:54 51°14.378 2°43.995 2.7 79 15 102630 56
2004-05-28 09:55 51°14.348 2°43.914 3 79 14.7 102630 56
2004-05-28 09:56 51°14.319 2°43.833 2.6 76 14.4 102630 56
2004-05-28 09:57 51°14.29 2°43.752 2.2 82 14.3 102630 56
2004-05-28 09:58 51°14.26 2°43.673 2.3 89 14.2 102630 55
2004-05-28 09:59 51°14.229 2°43.592 2 99 14.2 102630 57
2004-05-28 10:00 51°14.197 2°43.511 1.6 100 14.3 102630 56
2004-05-28 10:01 51°14.166 2°43.43 1.7 115 14.3 102630 57
2004-05-28 10:02 51°14.134 2°43.347 1.6 119 14.4 102620 55
2004-05-28 10:03 51°14.101 2°43.262 2.2 114 14.4 102630 56
2004-05-28 10:04 51°14.073 2°43.177 2 113 14.4 102630 56
2004-05-28 10:05 51°14.052 2°43.064 2.3 104 14.5 102630 57
2004-05-28 10:06 51°14.038 2°42.967 2.5 106 14.5 102630 56
2004-05-28 10:07 51°14.02 2°42.867 2.5 115 14.5 102630 55
2004-05-28 10:08 51°14.004 2°42.773 2.6 114 14.5 102630 57
2004-05-28 10:10 51°13.978 2°42.64 2.3 103 14.4 102630 56
2004-05-28 10:11 51°13.957 2°42.521 2.6 129 14.5 102630 58
2004-05-28 10:12 51°13.944 2°42.441 3.3 121 14.5 102630 56
2004-05-28 10:13 51°13.95 2°42.323 5.1 54 14.5 102630 58
2004-05-28 10:14 51°14.023 2°42.108 6.5 45 14.2 102620 57
2004-05-28 10:15 51°14.117 2°41.853 7.8 33 14 102620 57
2004-05-28 10:16 51°14.236 2°41.538 8.3 32 14 102610 58
2004-05-28 10:17 51°14.355 2°41.222 8.2 28 14 102610 57
2004-05-28 10:18 51°14.477 2°40.897 8.7 33 14 102610 56
2004-05-28 10:19 51°14.593 2°40.566 8.3 29 14 102620 58
2004-05-28 10:20 51°14.712 2°40.232 8.8 33 14.1 102620 59
2004-05-28 10:21 51°14.828 2°39.899 8.2 37 14 102620 57
2004-05-28 10:22 51°14.944 2°39.572 7.9 38 13.8 102620 59
2004-05-28 10:23 51°15.061 2°39.243 7.8 40 13.8 102620 60
2004-05-28 10:24 51°15.175 2°38.919 8.7 40 13.7 102620 59
2004-05-28 10:25 51°15.298 2°38.574 8.4 42 13.6 102610 60
2004-05-28 10:27 51°15.423 2°38.234 7.6 38 13.6 102610 61
2004-05-28 10:28 51°15.54 2°37.91 7.9 44 13.6 102620 60
2004-05-28 10:29 51°15.665 2°37.573 8.7 40 13.6 102620 62
2004-05-28 10:30 51°15.81 2°37.257 8.9 36 13.6 102620 62
2004-05-28 10:31 51°16.005 2°37.046 10.4 29 13.6 102600 62
2004-05-28 10:32 51°16.221 2°36.925 10.2 27 13.8 102610 61
2004-05-28 10:33 51°16.368 2°36.715 2.8 73 13.8 102610 61
2004-05-28 10:34 51°16.352 2°36.585 1.5 165 13.8 102630 63
2004-05-28 10:35 51°16.328 2°36.532 1.8 181 13.9 102630 61
2004-05-28 10:36 51°16.314 2°36.5 1.8 195 14.1 102630 61
2004-05-28 10:37 51°16.299 2°36.47 2.7 215 14.2 102620 58
2004-05-28 10:38 51°16.253 2°36.416 1.5 213 14.2 102630 60
2004-05-28 10:39 51°16.208 2°36.36 2.1 209 14.1 102620 59
2004-05-28 10:40 51°16.167 2°36.308 2.4 213 14.1 102620 58
2004-05-28 10:41 51°16.128 2°36.259 2 224 14 102620 61
2004-05-28 10:42 51°16.087 2°36.21 2.6 219 14 102620 61
2004-05-28 10:43 51°16.047 2°36.16 2.4 233 14 102620 61
2004-05-28 10:44 51°16.008 2°36.112 2.5 222 14 102620 60
2004-05-28 10:45 51°15.966 2°36.061 2.6 213 14 102620 59
2004-05-28 10:46 51°15.926 2°36.009 2.8 218 14 102620 60
2004-05-28 10:47 51°15.887 2°35.96 2.7 212 13.9 102620 60
2004-05-28 10:48 51°15.825 2°35.883 3.1 211 13.8 102610 60
2004-05-28 10:50 51°15.764 2°35.806 2.4 212 13.8 102610 60
2004-05-28 10:51 51°15.721 2°35.749 2.8 215 13.8 102610 62
2004-05-28 10:52 51°15.678 2°35.695 2.7 222 13.8 102610 62
2004-05-28 10:53 51°15.636 2°35.638 2.4 208 13.9 102620 60
2004-05-28 10:54 51°15.592 2°35.582 2.7 205 13.8 102610 59
2004-05-28 10:55 51°15.548 2°35.526 2.2 213 13.8 102610 60
2004-05-28 10:56 51°15.502 2°35.466 3 213 13.8 102610 61
2004-05-28 10:57 51°15.458 2°35.41 2.4 207 13.8 102610 58
2004-05-28 10:58 51°15.414 2°35.353 2.9 215 13.8 102610 60
2004-05-28 10:59 51°15.364 2°35.29 3 220 13.8 102610 61
2004-05-28 11:00 51°15.32 2°35.233 2.4 204 13.8 102610 63
2004-05-28 11:01 51°15.278 2°35.178 3.5 225 13.9 102600 64
2004-05-28 11:02 51°15.232 2°35.121 4.1 228 13.8 102610 60
2004-05-28 11:03 51°15.187 2°35.066 3.6 227 13.8 102600 61
2004-05-28 11:04 51°15.143 2°35.009 3.1 218 13.9 102610 61
2004-05-28 11:05 51°15.1 2°34.951 2.2 211 13.9 102600 63
2004-05-28 11:06 51°15.067 2°34.888 2.7 177 13.9 102600 62
2004-05-28 11:07 51°15.05 2°34.822 4.1 145 14 102600 62
2004-05-28 11:08 51°15.047 2°34.745 4.6 115 13.9 102600 64
2004-05-28 11:09 51°15.072 2°34.669 4.9 71 13.9 102600 62
2004-05-28 11:10 51°15.107 2°34.642 5.5 29 13.8 102590 61
2004-05-28 11:11 51°15.145 2°34.662 6.5 9 13.9 102590 64
2004-05-28 11:12 51°15.19 2°34.71 6.8 10 14 102590 64
2004-05-28 11:13 51°15.227 2°34.752 6.5 14 14.1 102590 62
2004-05-28 11:14 51°15.264 2°34.789 6.6 17 14.2 102590 65
2004-05-28 11:15 51°15.299 2°34.824 6.1 12 14.2 102590 61
2004-05-28 11:16 51°15.334 2°34.861 6.7 7 14.2 102590 60
2004-05-28 11:17 51°15.365 2°34.903 6.6 5 14.2 102590 64
2004-05-28 11:18 51°15.387 2°34.953 6.3 1 14.1 102590 62
2004-05-28 11:19 51°15.408 2°35.005 6.8 359 14.2 102590 62
2004-05-28 11:20 51°15.433 2°35.06 6.7 359 14.2 102590 64
2004-05-28 11:21 51°15.457 2°35.111 6.1 356 14.2 102590 61
2004-05-28 11:22 51°15.481 2°35.16 5.8 359 14.2 102600 63
2004-05-28 11:23 51°15.504 2°35.21 6.1 355 14.3 102590 63
2004-05-28 11:24 51°15.529 2°35.259 6 359 14.3 102590 62
2004-05-28 11:25 51°15.554 2°35.307 5.6 354 14.3 102590 63
2004-05-28 11:26 51°15.577 2°35.357 6.7 357 14.3 102590 63
2004-05-28 11:27 51°15.6 2°35.406 6.1   14.3 102590 62
2004-05-28 11:28 51°15.623 2°35.453 5.9 358 14.3 102600 61
2004-05-28 11:29 51°15.648 2°35.502 6.3 359 14.3 102590 63
2004-05-28 11:30 51°15.672 2°35.549 6.8 1 14.3 102590 64
2004-05-28 11:31 51°15.696 2°35.595 6.8 3 14.3 102590 62
2004-05-28 11:32 51°15.72 2°35.645 6.7 359 14.2 102590 63
2004-05-28 11:33 51°15.742 2°35.694 6.9 358 14.2 102590 61
2004-05-28 11:34 51°15.763 2°35.743 6.2 1 14.2 102590 59
2004-05-28 11:35 51°15.785 2°35.791 6.2 360 14.2 102590 60
2004-05-28 11:36 51°15.807 2°35.839 6.7 359 14.2 102590 61
2004-05-28 11:37 51°15.829 2°35.885 6.6 359 14.2 102590 62
2004-05-28 11:38 51°15.851 2°35.932 6 6 14.2 102590 62
2004-05-28 11:39 51°15.874 2°35.982 6.4 360 14.2 102590 62
2004-05-28 11:40 51°15.889 2°36.013 6.1 359 14.2 102590 62
2004-05-28 11:41 51°15.944 2°36.111 11.3 4 14.1 102590 62
2004-05-28 11:42 51°16.064 2°36.377 12.5 359 14.1 102570 64
2004-05-28 11:43 51°16.18 2°36.67 12.4 360 14.1 102570 64
2004-05-28 11:44 51°16.292 2°36.969 11.8 358 14.1 102570 61
2004-05-28 11:45 51°16.385 2°37.276 11.7 353 14.1 102570 63
2004-05-28 11:46 51°16.479 2°37.596 11.9 356 14.2 102570 62
2004-05-28 11:47 51°16.572 2°37.909 12.5 358 14.2 102560 65
2004-05-28 11:48 51°16.665 2°38.213 12.8 355 14.2 102570 63
2004-05-28 11:49 51°16.766 2°38.509 11.5 350 14.2 102570 64
2004-05-28 11:50 51°16.854 2°38.813 12.3 349 14.2 102570 64
2004-05-28 11:51 51°16.918 2°39.139 11.9 350 14.2 102570 65
2004-05-28 11:52 51°16.982 2°39.474 12 350 14.2 102560 64
2004-05-28 11:53 51°17.044 2°39.808 12.5 353 14.2 102570 64
2004-05-28 11:54 51°17.108 2°40.14 12.1 351 14.2 102570 64
2004-05-28 11:55 51°17.171 2°40.469 12.4 349 14.2 102560 64
2004-05-28 11:56 51°17.233 2°40.811 12.4 346 14.2 102570 64
2004-05-28 11:57 51°17.295 2°41.146 11.8 346 14.2 102570 65
2004-05-28 11:58 51°17.359 2°41.482 12.4 352 14.2 102570 64
2004-05-28 11:59 51°17.42 2°41.816 13.2 352 14.2 102560 63
2004-05-28 12:00 51°17.479 2°42.152 12.7 354 14.2 102560 64
2004-05-28 12:01 51°17.54 2°42.484 12.3 348 14.2 102560 63
2004-05-28 12:02 51°17.603 2°42.809 11.6 352 14.2 102560 63
2004-05-28 12:03 51°17.668 2°43.129 10.4 348 14.2 102570 61
2004-05-28 12:04 51°17.736 2°43.464 12 348 14.2 102570 64
2004-05-28 12:05 51°17.802 2°43.792 11.6 351 14.2 102560 65
2004-05-28 12:06 51°17.863 2°44.106 10.6 346 14.2 102570 64
2004-05-28 12:07 51°17.874 2°44.231 6.3 344 14.3 102570 62
2004-05-28 12:08 51°17.874 2°44.238 6 336 14.3 102580 63
2004-05-28 12:09 51°17.872 2°44.239 6.3 335 14.3 102580 63
2004-05-28 12:10 51°17.893 2°44.298 7.8 345 14.3 102570 62
2004-05-28 12:11 51°17.91 2°44.36 7.9 340 14.4 102570 60
2004-05-28 12:12 51°17.925 2°44.418 6.8 342 14.4 102570 61
2004-05-28 12:13 51°17.94 2°44.472 7.3 347 14.4 102580 64
2004-05-28 12:14 51°17.957 2°44.524 7.5 349 14.4 102580 60
2004-05-28 12:15 51°17.975 2°44.575 7.1 345 14.4 102570 62
2004-05-28 12:16 51°17.993 2°44.628 7 352 14.4 102580 62
2004-05-28 12:17 51°18.011 2°44.68 7.2 353 14.5 102580 63
2004-05-28 12:18 51°18.03 2°44.732 7.3 342 14.5 102570 62
2004-05-28 12:19 51°18.048 2°44.787 7.2 349 14.5 102580 61
2004-05-28 12:20 51°18.067 2°44.845 6.9 349 14.5 102570 61
2004-05-28 12:21 51°18.085 2°44.903 7.6 344 14.5 102570 63
2004-05-28 12:22 51°18.104 2°44.96 7.4 352 14.5 102570 63
2004-05-28 12:23 51°18.123 2°45.019 7.9 350 14.5 102560 60
2004-05-28 12:24 51°18.14 2°45.076 7.9 346 14.5 102570 60
2004-05-28 12:25 51°18.158 2°45.132 8.2 346 14.5 102570 63
2004-05-28 12:26 51°18.174 2°45.189 7.8 347 14.4 102560 61
2004-05-28 12:27 51°18.19 2°45.246 7 345 14.4 102560 61
2004-05-28 12:28 51°18.206 2°45.3 7.6 349 14.4 102570 62
2004-05-28 12:29 51°18.223 2°45.355 8.1 344 14.4 102560 62
2004-05-28 12:30 51°18.238 2°45.411 7.9 346 14.4 102560 63
2004-05-28 12:31 51°18.253 2°45.466 7.9 343 14.4 102560 62
2004-05-28 12:32 51°18.268 2°45.523 8.3 350 14.3 102560 62
2004-05-28 12:33 51°18.285 2°45.575 7.8 349 14.3 102560 62
2004-05-28 12:34 51°18.3 2°45.627 7.7 349 14.4 102560 64
2004-05-28 12:35 51°18.315 2°45.681 8.3 352 14.4 102560 64
2004-05-28 12:36 51°18.33 2°45.732 8.3 354 14.4 102550 63
2004-05-28 12:37 51°18.344 2°45.784 7.7 348 14.4 102550 64
2004-05-28 12:38 51°18.357 2°45.837 7.7 352 14.4 102550 64
2004-05-28 12:39 51°18.371 2°45.889 8.4 350 14.4 102550 64
2004-05-28 12:40 51°18.382 2°45.939 7.8 349 14.4 102550 63
2004-05-28 12:41 51°18.388 2°45.97 7.5 346 14.4 102550 64
2004-05-28 12:42 51°18.384 2°45.984 6.9 327 14.5 102550 63
2004-05-28 12:43 51°18.37 2°46.005 7.8 44 14.5 102550 64
2004-05-28 12:44 51°18.335 2°46.074 8.1 229 14.4 102550 64
2004-05-28 12:45 51°18.305 2°46.138 7.6 321 14.4 102550 63
2004-05-28 12:46 51°18.279 2°46.196 8.1 227 14.4 102550 63
2004-05-28 12:47 51°18.257 2°46.254 7.2 321 14.4 102550 67
2004-05-28 12:48 51°18.235 2°46.313 8.1 322 14.4 102550 66
2004-05-28 12:49 51°18.211 2°46.374 7.9 321 14.4 102550 64
2004-05-28 12:50 51°18.189 2°46.437 8.1 330 14.3 102550 64
2004-05-28 12:51 51°18.171 2°46.499 8.2 331 14.4 102540 65
2004-05-28 12:52 51°18.153 2°46.563 8.7 328 14.4 102550 66
2004-05-28 12:53 51°18.134 2°46.634 8.4 330 14.4 102540 65
2004-05-28 12:54 51°18.117 2°46.697 8.5 328 14.3 102540 64
2004-05-28 12:55 51°18.1 2°46.76 8.9 327 14.3 102540 64
2004-05-28 12:56 51°18.081 2°46.822 9 322 14.3 102540 65
2004-05-28 12:57 51°18.064 2°46.885 8.5 323 14.2 102540 65
2004-05-28 12:58 51°18.046 2°46.947 8.1 320 14.2 102540 66
2004-05-28 12:59 51°18.03 2°47.011 8.3 317 14.3 102540 68
2004-05-28 13:00 51°18.012 2°47.078 7.2 319 14.3 102550 67
2004-05-28 13:01 51°17.995 2°47.143 7.3 324 14.3 102540 65
2004-05-28 13:02 51°17.977 2°47.207 7.3 326 14.3 102540 66
2004-05-28 13:03 51°17.959 2°47.274 8.9 326 14.3 102540 67
2004-05-28 13:04 51°17.941 2°47.338 8.1 322 14.2 102540 66
2004-05-28 13:05 51°17.923 2°47.401 9 317 14.2 102530 67
2004-05-28 13:06 51°17.904 2°47.467 7.9 326 14.2 102540 68
2004-05-28 13:07 51°17.887 2°47.532 9.7 321 14.2 102540 68
2004-05-28 13:08 51°17.869 2°47.598 8.8 322 14.2 102530 67
2004-05-28 13:09 51°17.852 2°47.664 8.9 319 14.2 102540 68
2004-05-28 13:10 51°17.834 2°47.729 9.5 325 14.2 102540 68
2004-05-28 13:11 51°17.816 2°47.793 8.4 320 14.1 102530 66
2004-05-28 13:12 51°17.798 2°47.859 9 327 14.2 102540 68
2004-05-28 13:13 51°17.781 2°47.925 9 320 14.2 102530 68
2004-05-28 13:14 51°17.763 2°47.99 9.1 319 14.2 102540 68
2004-05-28 13:15 51°17.742 2°48.054 9.7 322 14.1 102540 67
2004-05-28 13:16 51°17.719 2°48.099 7.3 307 14.1 102540 67
2004-05-28 13:17 51°17.692 2°48.123 9.2 297 14.1 102540 69
2004-05-28 13:18 51°17.658 2°48.163 8.3 290 14.1 102540 69
2004-05-28 13:19 51°17.624 2°48.199 6.9 294 14.1 102540 69
2004-05-28 13:20 51°17.554 2°48.32 11.2 228 14.1 102540 69
2004-05-28 13:21 51°17.421 2°48.572 11.2 323 14.1 102530 70
2004-05-28 13:22 51°17.269 2°48.84 11.2 318 14.1 102520 68
2004-05-28 13:23 51°17.114 2°49.107 11.4 322 14.1 102530 69
2004-05-28 13:24 51°16.961 2°49.376 11.1 317 14.1 102520 68
2004-05-28 13:25 51°16.807 2°49.641 10.9 322 14.1 102520 68
2004-05-28 13:26 51°16.648 2°49.917 11.6 321 14.1 102520 69
2004-05-28 13:27 51°16.483 2°50.21 11.4 319 14.1 102510 69
2004-05-28 13:28 51°16.334 2°50.468 10.5 322 14.1 102520 70
2004-05-28 13:29 51°16.189 2°50.742 12.1 320 14.2 102510 70
2004-05-28 13:30 51°16.032 2°51.012 11 317 14.2 102520 69
2004-05-28 13:31 51°15.892 2°51.287 11.5 325 14.1 102520 67
2004-05-28 13:32 51°15.759 2°51.578 11.8 321 14.1 102510 66
2004-05-28 13:33 51°15.631 2°51.865 11.7 323 14.2 102510 69
2004-05-28 13:34 51°15.503 2°52.145 11.7 319 14.1 102510 67
2004-05-28 13:35 51°15.369 2°52.436 11.5 317 14.2 102500 68
2004-05-28 13:36 51°15.234 2°52.717 11 322 14.2 102500 68
2004-05-28 13:37 51°15.104 2°53.001 11.8 318 14.2 102500 66
2004-05-28 13:38 51°14.978 2°53.291 12.3 323 14.2 102500 66
2004-05-28 13:40 51°14.844 2°53.604 11.9 318 14.2 102500 65
2004-05-28 13:41 51°14.71 2°53.925 12.6 316 14.2 102500 66
2004-05-28 13:42 51°14.578 2°54.237 12.4 318 14.3 102500 68
2004-05-28 13:43 51°14.488 2°54.624 12 327 14.3 102500 67
2004-05-28 13:44 51°14.407 2°54.928 12 325 14.3 102490 65
2004-05-28 13:45 51°14.298 2°55.209 10.3 314 14.3 102510 67
2004-05-28 13:46 51°14.188 2°55.374 8.1 288 14.4 102520 69
2004-05-28 13:47 51°14.094 2°55.464 7.1 261 14.4 102520 65
2004-05-28 13:48 51°13.989 2°55.526 5.7 266 14.5 102520 64
2004-05-28 13:49 51°13.865 2°55.595 3.3 255 14.7 102520 65
2004-05-28 13:50 51°13.754 2°55.674 4.8 282 14.7 102520 64
2004-05-28 13:51 51°13.686 2°55.789 7.1 319 14.9 102520 62
2004-05-28 13:52 51°13.635 2°55.92 4.7 293 15.1 102510 61
2004-05-28 13:53 51°13.608 2°56.023 7.5 313 15.2 102520 61
2004-05-28 13:54 51°13.597 2°56.093 3.3 289 15.4 102520 61
2004-05-28 13:55 51°13.595 2°56.096 2.2 237 15.7 102520 59
2004-05-28 13:56 51°13.595 2°56.097 5.5 261 15.8 102520 59
2004-05-28 13:57 51°13.596 2°56.097 6.7 268 15.8 102520 58
2004-05-28 13:58 51°13.596 2°56.098 3.5 243 15.9 102510 58